^^
Vremenska postaja Bezina
 
Daily Summary for February 24, 2018 Units:  Metric    English   Both
« Previous Day
Next Day »
Daily Weekly Monthly Yearly Custom
  Current: High: Low: Average:
Temperature: -19.3 °C -17.8 °C -19.3 °C -18.7 °C
Dew Point: -19.9 °C -17.8 °C -20.1 °C -19.1 °C
Humidity: 92% Humidity% 91% 92%
Wind Speed: 5.1km/h 0km/h 0km/h 2.7km/h
Wind Gust: 10.3km/h 0km/h - -
WindNE - - SE
Pressure: 34520.3 hPa 0 hPa 34476.3 hPa -
Precipitation: 0 mm      
Historical Graphs
 
 
Tabular Data for February 24, 2018
Time Temperature Dew Point Pressure Wind Wind Speed Wind Gust Humidity Rainfall Rate (Hourly) solar Conditions
-17.8 °C -17.8 °C 0 hPa Calm     Humidity% 0 mm SolarRadiationWatts/m^2 W/m2 Conditions
00:00 -18.2 °C -18.6 °C 34476.3 hPa SE 7.7 km/h 7.7 km/h 95% 0 mm 0 W/m2
00:15 -18.2 °C -18.6 °C 34486.4 hPa SSE 2.6 km/h 10.3 km/h 95% 0 mm 0 W/m2
00:30 -18.2 °C -18.6 °C 34486.4 hPa Calm   5.1 km/h 95% 0 mm 0 W/m2
00:45 -18.2 °C -18.6 °C 34486.4 hPa SSE 5.1 km/h 7.7 km/h 95% 0 mm 0 W/m2
01:00 -18.2 °C -18.6 °C 34486.4 hPa SSE 5.1 km/h 10.3 km/h 95% 0 mm 0 W/m2
01:15 -18.2 °C -18.6 °C 34486.4 hPa SSE 2.6 km/h 5.1 km/h 95% 0 mm 0 W/m2
01:30 -18.2 °C -18.7 °C 34486.4 hPa SSE 2.6 km/h 5.1 km/h 95% 0 mm 0 W/m2
01:45 -18.2 °C -18.7 °C 34486.4 hPa Calm   2.6 km/h 95% 0 mm 0 W/m2
02:00 -18.2 °C -18.7 °C 34486.4 hPa Calm   5.1 km/h 95% 0 mm 0 W/m2
02:15 -18.2 °C -18.7 °C 34486.4 hPa Calm   5.1 km/h 95% 0 mm 0 W/m2
02:30 -18.3 °C -18.7 °C 34486.4 hPa SSE 5.1 km/h 5.1 km/h 95% 0 mm 0 W/m2
02:45 -18.3 °C -18.7 °C 34486.4 hPa SSE 2.6 km/h 5.1 km/h 95% 0 mm 0 W/m2
03:00 -18.3 °C -18.7 °C 34486.4 hPa SSE 2.6 km/h 12.9 km/h 95% 0 mm 0 W/m2
03:15 -18.4 °C -18.8 °C 34486.4 hPa ESE 5.1 km/h 10.3 km/h 95% 0 mm 0 W/m2
03:30 -18.4 °C -18.8 °C 34486.4 hPa ENE 2.6 km/h 7.7 km/h 95% 0 mm 0 W/m2
03:45 -18.4 °C -18.8 °C 34486.4 hPa SSE 5.1 km/h 7.7 km/h 95% 0 mm 0 W/m2
04:00 -18.5 °C -18.9 °C 34486.4 hPa South 5.1 km/h 12.9 km/h 95% 0 mm 0 W/m2
04:15 -18.6 °C -18.9 °C 34486.4 hPa South 2.6 km/h 12.9 km/h 95% 0 mm 0 W/m2
04:30 -18.6 °C -19 °C 34486.4 hPa Calm   12.9 km/h 95% 0 mm 0 W/m2
04:45 -18.7 °C -19.1 °C 34486.4 hPa South 10.3 km/h 12.9 km/h 95% 0 mm 0 W/m2
05:00 -18.8 °C -19.2 °C 34486.4 hPa SSE 2.6 km/h 10.3 km/h 94% 0 mm 0 W/m2
05:15 -18.8 °C -19.3 °C 34486.4 hPa Calm   7.7 km/h 94% 0 mm 0 W/m2
05:30 -18.8 °C -19.3 °C 34486.4 hPa Calm   5.1 km/h 94% 0 mm 0 W/m2
05:45 -18.8 °C -19.3 °C 34486.4 hPa SE 2.6 km/h 5.1 km/h 94% 0 mm 0 W/m2
06:00 -18.9 °C -19.3 °C 34486.4 hPa ESE 2.6 km/h 5.1 km/h 94% 0 mm 0 W/m2
06:15 -18.9 °C -19.4 °C 34496.6 hPa East 2.6 km/h 5.1 km/h 94% 0 mm 0 W/m2
06:30 -19 °C -19.4 °C 34496.6 hPa ENE 2.6 km/h 5.1 km/h 94% 0 mm 0 W/m2
06:45 -19.1 °C -19.5 °C 34496.6 hPa Calm   5.1 km/h 94% 0 mm 0 W/m2
07:00 -19.1 °C -19.7 °C 34496.6 hPa Calm   10.3 km/h 93% 0 mm 0 W/m2
07:15 -19.2 °C -19.8 °C 34510.1 hPa NE 2.6 km/h 10.3 km/h 93% 0 mm 0 W/m2
07:30 -19.3 °C -19.9 °C 34510.1 hPa Calm   5.1 km/h 92% 0 mm 0 W/m2
07:45 -19.3 °C -19.9 °C 34510.1 hPa NE 2.6 km/h 7.7 km/h 92% 0 mm 5 W/m2
08:00 -19.3 °C -19.9 °C 34496.6 hPa Calm   5.1 km/h 92% 0 mm 5 W/m2
08:15 -19.3 °C -20.1 °C 34496.6 hPa ENE 5.1 km/h 10.3 km/h 91% 0 mm 7 W/m2
08:30 -19.3 °C -20.1 °C 34510.1 hPa ENE 2.6 km/h 7.7 km/h 91% 0 mm 7 W/m2
08:45 -19.3 °C -20.1 °C 34510.1 hPa SSE 7.7 km/h 10.3 km/h 91% 0 mm 9 W/m2
09:00 -19.3 °C -19.9 °C 34520.3 hPa NE 5.1 km/h 10.3 km/h 92% 0 mm 11 W/m2
Juneau County Weather
Compliments of Weather Underground - 1.5 mb